Change the Weather History Date:

Friday, May 30, 2014

  Actual Average Record
Temperature  
Mean Temperature 76 °F 77 °F  
Max Temperature 80 °F 88 °F 103 °F (1951)
Min Temperature 71 °F 65 °F 49 °F (1971)
Degree Days  
Heating Degree Days 0 0  
Month to date heating degree days 11 5  
Since 1 July heating degree days 2276 1983  
Cooling Degree Days 11 12  
Month to date cooling degree days 239 263  
Year to date cooling degree days 364 403  
Growing Degree Days 25 (Base 50)    
Moisture  
Dew Point 71 °F    
Average Humidity 90    
Maximum Humidity 100    
Minimum Humidity 79    
Precipitation  
Precipitation 0.33 in 0.16 in 1.52 in (2002)
Month to date precipitation 5.61 4.81  
Year to date precipitation 28.12 26.37  
Sea Level Pressure  
Sea Level Pressure 29.95 in    
Wind  
Wind Speed 7 mph (ESE)    
Max Wind Speed 16 mph    
Max Gust Speed 20 mph    
Visibility 9 miles    
Events Rain , Thunderstorm    
T = Trace of Precipitation, MM = Missing Value Source: NWS Daily Summary

Daily Weather History Graph

Daily Weather History Graph

Search for Another Location

Airport or City:

Trip Planner

Search our weather history database for the weather conditions in past years. The results will help you decide how hot, cold, wet, or windy it might be!

Date:

Astronomy

May. 30, 2014 Rise Set
Actual Time 5:54 AM CDT 7:55 PM CDT
Civil Twilight 5:26 AM CDT 8:22 PM CDT
Nautical Twilight 4:53 AM CDT 8:56 PM CDT
Astronomical Twilight 4:17 AM CDT 9:31 PM CDT
Moon 7:34 AM CDT (5/30) 9:36 PM CDT (5/30)
Length of Visible Light 14h 56m
Length of Day
14h 01m
Waxing Crescent, 4% of the Moon is Illuminated
May 30
Waxing Crescent
Jun 5
First Quarter
Jun 12
Full
Jun 19
Last Quarter
Jun 27
New

Hourly Weather History & Observations

Time (CDT) Temp. Dew Point Humidity Pressure Visibility Wind Dir Wind Speed Gust Speed Precip Events Conditions
12:08 AM 72.0 °F 70.0 °F 93% 29.95 in 8.0 mi ESE 9.2 mph - 0.03 in Rain , Thunderstorm Rain
12:29 AM 72.0 °F 70.0 °F 93% 29.94 in 8.0 mi ESE 6.9 mph - 0.04 in Rain Light Rain
12:53 AM 72.0 °F 70.0 °F 93% 29.93 in 10.0 mi ESE 5.8 mph - 0.06 in Rain Light Rain
1:10 AM 72.0 °F 70.0 °F 93% 29.92 in 10.0 mi ESE 4.6 mph - 0.00 in Rain Light Rain
1:24 AM 72.0 °F 70.0 °F 93% 29.92 in 10.0 mi ESE 6.9 mph - 0.00 in   Mostly Cloudy
1:53 AM 71.1 °F 70.0 °F 96% 29.91 in 10.0 mi ESE 6.9 mph - 0.00 in   Overcast
2:53 AM 71.1 °F 70.0 °F 96% 29.90 in 10.0 mi ESE 6.9 mph - N/A   Mostly Cloudy
3:53 AM 72.0 °F 70.0 °F 93% 29.91 in 10.0 mi SE 5.8 mph - N/A   Overcast
4:53 AM 72.0 °F 70.0 °F 93% 29.92 in 10.0 mi East 5.8 mph - N/A   Overcast
5:53 AM 72.0 °F 70.0 °F 93% 29.91 in 7.0 mi ESE 8.1 mph - N/A   Overcast
6:01 AM 72.0 °F 70.0 °F 93% 29.93 in 7.0 mi East 5.8 mph - N/A   Overcast
6:53 AM 72.0 °F 71.1 °F 97% 29.94 in 9.0 mi East 8.1 mph - N/A   Overcast
7:53 AM 73.0 °F 71.1 °F 93% 29.94 in 10.0 mi East 8.1 mph - 0.00 in   Overcast
8:28 AM 73.9 °F 71.1 °F 91% 29.96 in 10.0 mi ESE 8.1 mph - N/A   Mostly Cloudy
8:53 AM 75.9 °F 71.1 °F 85% 29.95 in 10.0 mi East 10.4 mph - N/A   Mostly Cloudy
9:53 AM 78.1 °F 72.0 °F 81% 29.94 in 10.0 mi ESE 10.4 mph - N/A   Overcast
10:53 AM 79.0 °F 72.0 °F 79% 29.95 in 10.0 mi East 12.7 mph - 0.00 in   Overcast
11:08 AM 79.0 °F 71.1 °F 77% 29.96 in 10.0 mi East 12.7 mph - N/A Thunderstorm Mostly Cloudy
11:40 AM 77.0 °F 73.0 °F 88% 29.97 in 6.0 mi ESE 5.8 mph - 0.05 in Rain , Thunderstorm Light Thunderstorms and Rain
11:53 AM 78.1 °F 72.0 °F 81% 29.96 in 10.0 mi East 5.8 mph - 0.05 in   Mostly Cloudy
12:17 PM 77.0 °F 72.0 °F 84% 29.98 in 4.0 mi SE 5.8 mph - 0.03 in Rain , Thunderstorm Light Rain
12:32 PM 77.0 °F 73.0 °F 88% 29.97 in 10.0 mi ESE 4.6 mph - 0.03 in   Mostly Cloudy
12:42 PM 77.0 °F 73.0 °F 88% 29.97 in 10.0 mi SE 5.8 mph - 0.03 in Thunderstorm Scattered Clouds
12:53 PM 77.0 °F 72.0 °F 84% 29.96 in 10.0 mi Calm Calm - 0.03 in   Scattered Clouds
1:11 PM 75.9 °F 72.0 °F 87% 29.98 in 10.0 mi WSW 3.5 mph - N/A Thunderstorm Mostly Cloudy
1:31 PM 75.0 °F 72.0 °F 90% 29.97 in 10.0 mi West 6.9 mph - N/A   Partly Cloudy
1:38 PM 73.9 °F 71.1 °F 91% 29.98 in 10.0 mi West 4.6 mph - N/A Thunderstorm Partly Cloudy
1:53 PM 73.9 °F 71.1 °F 91% 29.97 in 10.0 mi SSW 3.5 mph - N/A Thunderstorm Mostly Cloudy
2:08 PM 75.0 °F 71.1 °F 87% 29.97 in 6.0 mi SE 9.2 mph - 0.01 in Rain , Thunderstorm Light Rain
2:17 PM 73.9 °F 69.1 °F 85% 29.96 in 10.0 mi SSE 6.9 mph - 0.02 in Rain Light Rain
2:53 PM 73.9 °F 70.0 °F 87% 29.94 in 10.0 mi South 4.6 mph - 0.02 in   Partly Cloudy
5:53 PM 75.9 °F 71.1 °F 85% 29.94 in 10.0 mi East 4.6 mph - N/A   Scattered Clouds
6:14 PM 75.9 °F 71.1 °F 85% 29.94 in 10.0 mi ESE 5.8 mph - 0.00 in Rain Light Rain
6:37 PM 75.0 °F 71.1 °F 87% 29.93 in 8.0 mi East 5.8 mph - 0.02 in Rain Light Rain
6:53 PM 75.0 °F 72.0 °F 90% 29.93 in 10.0 mi East 6.9 mph - 0.02 in   Mostly Cloudy
7:50 PM 73.4 °F 71.6 °F 94% 29.95 in 10.0 mi East 11.5 mph - N/A   Mostly Cloudy
7:53 PM 73.9 °F 71.1 °F 91% 29.94 in 10.0 mi East 8.1 mph - N/A   Mostly Cloudy
8:09 PM 73.9 °F 71.1 °F 91% 29.95 in 10.0 mi East 6.9 mph - 0.00 in Rain Light Rain
8:17 PM 73.0 °F 71.1 °F 93% 29.95 in 10.0 mi East 5.8 mph - 0.00 in   Mostly Cloudy
8:42 PM 73.0 °F 71.1 °F 93% 29.97 in 8.0 mi SE 6.9 mph - 0.00 in Rain , Thunderstorm Light Rain
8:53 PM 73.0 °F 71.1 °F 93% 29.96 in 4.0 mi ESE 6.9 mph - 0.03 in Rain , Thunderstorm Rain
9:48 PM 73.4 °F 71.6 °F 94% 29.99 in 7.0 mi ESE 9.2 mph - 0.12 in Rain Light Rain
9:53 PM 73.0 °F 70.0 °F 90% 29.98 in 5.0 mi SE 10.4 mph - 0.14 in Rain Heavy Rain
10:53 PM 72.0 °F 70.0 °F 93% 29.99 in 10.0 mi ESE 4.6 mph - 0.01 in   Partly Cloudy
11:53 PM 72.0 °F 71.1 °F 97% 29.99 in 10.0 mi SE 5.8 mph - 0.03 in   Partly Cloudy